Find Starlink 32673

NORAD ID: 63000 Int'l Des: 2025-031 Owner: SPXS Country: US Constellation: starlink operational
LEOCIRCULAR

Live Position

Loading 3D Globe...

About Starlink 32673

Description loading...

Upcoming Passes

Passes for default location (London). Set your location on the main map for personalized predictions.

Altitude History

Loading altitude history...

Two-Line Element Set

1 63000U 25031V 26139.30392242 .00015746 00000-0 57987-3 0 9998
2 63000 43.0039 104.6380 0002144 260.0040 100.0569 15.27616175 71892
Epoch: May 19, 2026 • Age: 24 hours

Current Status

Altitude 483.1 km
Velocity 7.63 km/s
Sub-Earth Point 21.95°N, 96.57°W
Launch Date Feb 11, 2025
Age 1.2 years
Type internet

Technical Details

Classification Payload
Mass 730.00 kg
Dry Mass 700.00 kg
Total Mass 730.00 kg
Length 0.30 m
Diameter 4.10 m
Span 29.00 m
Shape Box + pan
Manufacturer SPXS
Bus Type Starlink V2M
Phase Status In Orbit
Owner/State SPXS/US

Most Searched